Regional Weather Roundup
Issued by NWS

Home | Current Version | Previous Version | Graphics & Text | Print | Product List | Glossary Off
Versions: 1 2 3 4 5 6 7 8 9 10 11 12 13 14 15 16 17 18 19 20 21 22 23 24 25 26 27 28 29 30 31 32 33 34 35 36 37 38 39 40 41 42 43 44 45 46 47 48 49 50

000
ASUS43 KTOP 051659
RWRKS

WEATHER ROUNDUP FOR KANSAS
NATIONAL WEATHER SERVICE GOODLAND KS
1100 AM CST FRI FEB 05 2016

NOTE:  "FAIR" INDICATES FEW OR NO CLOUDS BELOW 12,000 FEET WITH NO
SIGNIFICANT WEATHER AND/OR OBSTRUCTIONS TO VISIBILITY.

KSZ001>006-013>018-027>032-041>047-051800-
NORTHWEST KANSAS

CITY           SKY/WX    TMP DP  RH WIND       PRES   REMARKS
GOODLAND       SUNNY     30  21  69 NW13      30.31R WCI  20
HAYS           CLOUDY    30  14  51 W5        30.34R
HILL CITY      MOSUNNY   34  19  54 SW8       30.32F
RUSSELL        CLOUDY    28  22  78 S5        30.32F
$$

KSZ061>065-074>080-084>089-051800-
SOUTHWEST KANSAS

CITY           SKY/WX    TMP DP  RH WIND       PRES   REMARKS
DODGE CITY     CLOUDY    31  21  66 NE10      30.31R WCI  22
ELKHART          N/A     33   9  36 N15         N/A  WCI  23
GARDEN CITY    CLOUDY    32  18  56 N9        30.30R
GREAT BEND     MOSUNNY   36  19  51 CALM      30.34F
LIBERAL        MOSUNNY   34  18  51 NE16G23   30.25R WCI  23
$$

KSZ066>073-081>083-090>101-051800-
SOUTHEAST KANSAS

CITY           SKY/WX    TMP DP  RH WIND       PRES   REMARKS
CHANUTE        PTSUNNY   37  24  59 SE5       30.40F
COFFEYVILLE    MOSUNNY   43  25  49 S6        30.41F
HUTCHINSON     SUNNY     38  21  50 E5        30.37S
MEDICINE LODGE   N/A     42  22  44 SE9       30.31F
NEWTON         SUNNY     36  21  55 CALM      30.39R
PARSONS        MOSUNNY   42  24  49 S5        30.40F
WICHITA INTL   MOSUNNY   42  20  41 NE5       30.36S
WICHITA JABRA  SUNNY     38  23  55 CALM      30.36S
WINFIELD       SUNNY     46  24  42 S6        30.37F
$$

KSZ007>012-019>026-033>040-048>060-102>105-051800-
NORTHEAST KANSAS

CITY           SKY/WX    TMP DP  RH WIND       PRES   REMARKS
CONCORDIA      CLOUDY    30  21  69 SE9       30.34F
EMPORIA        MOSUNNY   33  25  72 SE9       30.37F
LAWRENCE       PTSUNNY   30  23  75 S6        30.44R
MANHATTAN      CLOUDY    30  24  78 SW7       30.40S
OLATHE IND     PTSUNNY   31  22  69 SE9       30.43R
OLATHE EXE     CLOUDY    30  21  69 S8        30.42S
SALINA         CLOUDY    33  21  61 CALM      30.38F
TOPEKA BILLARD CLOUDY    31  22  69 S7        30.42F
TOPEKA FORBES  CLOUDY    32  23  69 SE8       30.40F
$$



USA.gov is the U.S. government's official web portal to all federal, state and local government web resources and services.